Tracking 22842 objects as of 15-Apr-2021
HD Live streaming from Space Station
objects crossing your sky now

KALAMSAT-V2/PSLV

Track KALAMSAT-V2/PSLV now!
10-day predictions
KALAMSAT-V2/PSLV is classified as:


NORAD ID: 43948
Int'l Code: 2019-006B
Perigee: 446.8 km
Apogee: 451.6 km
Inclination: 98.8 °
Period: 93.4 minutes
Semi major axis: 6820 km
RCS: Unknown
Launch date: January 24, 2019
Source: India (IND)
Launch site: SRIHARIKOTA (SRI)

Uplink (MHz):
Downlink (MHz): 436.500
Beacon (MHz):
Mode:
Call sign:
Status: Unknown

aabbcc
Your satellite tracking list
Your tracking list is empty




NASA's NSSDC Master Catalog

Two Line Element Set (TLE):
1 43948U 19006B   21105.24183534  .00002106  00000-0  53233-4 0  9992
2 43948  98.7907 195.3127 0003507 333.3730  26.7332 15.41365111124889
Source of the keplerian elements: AFSPC